Location: Ab? ar R?sh Ba?r?
(24.1861°N, 32.8847°E)
Time: 19:43:31
(UTC+00:00)

IRIS - Visible Passes

Search period start: 25 May 2022 00:00
Search period end: 04 June 2022 00:00
Orbit: 277 x 2516 km, 41.1° (Epoch: 24 May)

Date Brightness Start Highest point End Pass type
(mag) Time Alt. Az. Time Alt. Az. Time Alt. Az.
25 May 6.6 18:09:26 10° NW 18:14:08 44° NE 18:17:13 29° E visible
25 May 7.7 20:08:04 10° WNW 20:10:52 29° W 20:10:52 29° W visible
26 May 7.2 16:51:18 10° NNW 16:54:13 18° NNE 16:58:10 10° ENE visible
26 May 6.0 18:48:35 10° NW 18:53:50 90° NE 18:54:41 71° SE visible
27 May 6.4 17:29:44 10° NW 17:33:45 38° NE 17:38:28 16° E visible
27 May 7.0 19:28:10 10° WNW 19:32:06 39° WSW 19:32:06 39° WSW visible
28 May 5.7 18:08:33 10° NW 18:13:07 87° NE 18:15:48 39° SE visible
28 May 8.3 20:08:41 10° W 20:09:26 13° WSW 20:09:26 13° WSW visible
29 May 6.3 16:49:36 10° NNW 16:53:00 32° NE 16:58:17 10° E visible
29 May 6.6 18:47:50 10° WNW 18:52:38 42° SW 18:53:04 41° SSW visible
30 May 5.3 17:28:04 10° NW 17:32:01 84° NE 17:36:39 19° SE visible
30 May 7.9 19:28:11 10° W 19:30:17 17° WSW 19:30:17 17° WSW visible
31 May 6.4 18:07:05 10° WNW 18:11:13 39° SW 18:13:48 27° S visible
01 Jun 7.7 18:47:19 10° WSW 18:50:40 17° SSW 18:50:52 17° SSW visible
02 Jun 6.3 17:25:52 10° WNW 17:29:24 35° SW 17:34:15 13° SSE visible
03 Jun 7.7 18:06:04 10° WSW 18:08:32 14° SSW 18:11:11 11° S visible
